TimeMDT,TemperatureF,Dew PointF,Humidity,Sea Level PressureIn,VisibilityMPH,Wind Direction,Wind SpeedMPH,Gust SpeedMPH,PrecipitationIn,Events,Conditions,WindDirDegrees,DateUTC
12:54 AM,45.0,30.9,58,29.84,10.0,SW,9.2,-,N/A,,Clear,220,2011-10-20 06:54:00
1:54 AM,45.0,30.9,58,29.85,10.0,WSW,8.1,-,N/A,,Clear,240,2011-10-20 07:54:00
2:54 AM,46.0,32.0,58,29.86,10.0,SW,11.5,-,N/A,,Clear,220,2011-10-20 08:54:00
3:54 AM,42.1,30.9,65,29.88,10.0,Calm,Calm,-,N/A,,Clear,0,2011-10-20 09:54:00
4:54 AM,45.0,32.0,60,29.89,10.0,WSW,3.5,-,N/A,,Clear,250,2011-10-20 10:54:00
5:54 AM,43.0,32.0,65,29.91,10.0,Calm,Calm,-,N/A,,Clear,0,2011-10-20 11:54:00
6:54 AM,36.0,30.0,79,29.94,10.0,Calm,Calm,-,N/A,,Clear,0,2011-10-20 12:54:00
7:54 AM,45.0,33.1,63,29.92,10.0,Calm,Calm,-,N/A,,Clear,0,2011-10-20 13:54:00
8:54 AM,44.1,35.1,71,29.94,10.0,SW,8.1,-,N/A,,Clear,230,2011-10-20 14:54:00
10:54 AM,57.0,37.9,49,29.92,10.0,North,4.6,-,N/A,,Clear,360,2011-10-20 16:54:00
11:54 AM,60.1,35.1,39,29.93,10.0,NW,8.1,-,N/A,,Clear,310,2011-10-20 17:54:00
12:54 PM,62.1,33.1,34,29.92,10.0,WNW,19.6,24.2,N/A,,Clear,300,2011-10-20 18:54:00
1:54 PM,63.0,33.1,33,29.91,10.0,NW,15.0,20.7,N/A,,Clear,310,2011-10-20 19:54:00
2:54 PM,59.0,34.0,39,29.93,10.0,NW,16.1,24.2,N/A,,Scattered Clouds,320,2011-10-20 20:54:00
3:54 PM,57.0,35.1,44,29.95,10.0,NW,12.7,20.7,N/A,,Overcast,320,2011-10-20 21:54:00
4:54 PM,55.9,35.1,45,29.96,10.0,NW,9.2,-,N/A,,Scattered Clouds,320,2011-10-20 22:54:00
5:54 PM,55.0,35.1,47,29.97,10.0,Calm,Calm,-,N/A,,Mostly Cloudy,0,2011-10-20 23:54:00
6:54 PM,48.0,35.1,61,30.01,10.0,WNW,4.6,-,N/A,,Scattered Clouds,300,2011-10-21 00:54:00
7:54 PM,48.9,37.0,64,30.00,10.0,West,3.5,-,N/A,,Overcast,280,2011-10-21 01:54:00
8:54 PM,52.0,34.0,50,30.01,10.0,West,8.1,-,N/A,,Overcast,280,2011-10-21 02:54:00
9:54 PM,51.1,34.0,52,30.00,10.0,West,9.2,-,N/A,,Overcast,260,2011-10-21 03:54:00
11:54 PM,45.0,35.1,68,30.02,10.0,Variable,4.6,-,N/A,,Mostly Cloudy,0,2011-10-21 05:54:00